DECAYED

STARLINK-2282, 48018 (Decayed)

Orbit data source: Space-Track

STARLINK-2282, 48018 was a payload satellite owned by SpaceX/Seattle (US) in LEO that was launched on Wed, 24 Mar 2021 UTC via an FALCON 9 launch vehicle from the Air Force Eastern Test Range (AFETR). Payload-class satellites include a variety of spacecraft equipped with specific instruments for various scientific and technological missions. These include communications satellites like Starlink; space stations such as the ISS; scientific satellites like the Hubble; Earth observation satellites from companies like Planet Labs, Umbra, and HawkEye 360; GPS; miniature CubeSats for education and research; and military/defense satellites.

Not visible in the next 10 days
Identifier
48018, 2021-024AT
Orbit
Decayed
Country
Flag of USUS
Related business
Manufacturer
SpaceX/Seattle
Mission
Decayed Commercial Communications
Bus & Motor
STARLINK, Unknown motor
Mass
260 kg wet, ~248 kg dry
Launch date (UTC)
2021-03-24 (5 years ago)
Launch vehicle
FALCON 9
Launch site
Air Force Eastern Test Range (AFETR)
Object type
Payload
Rocket body
Debris
Shape & HBR
Box + 1 Pan, 10.1 m
Radar Cross Section
13.562 m², Large (>1 m²)

Expand to show TLE details & history
Last TLE update: 9 months ago

TLE from 9 months ago
0 STARLINK-2282
1 48018U 21024AT  25279.17812956  .10817966  12324-4  75144-3 0  9992
2 48018  52.9956 205.3149 0004477 226.7507 133.3166 16.40376741252746
Epoch: 2025-10-06T04:16Z
TLE epoch observation values (Epoch: 2025-10-06T04:16:30.393Z)
Latitude
-0.00003°
Longitude
126.10313°
Altitude
167.734 km
Speed
7.806 km/s
True Right ascension
13h 41m 15s
True Declination
0° 00' 00"
Sunlit
Object was in daylight at epoch
Visualization orbit readout
Latitude
Unknown
Longitude
Unknown
Altitude
Unknown
Speed
Unknown
Apparent Right ascension
Unknown
Apparent Declination
Unknown
Sunlit
N/A
Visualization observer readout
Local Sidereal Time
21:39:53
Azimuth
Unknown
Elevation
Unknown
Doppler factor
Unknown
Orbital elements
Apogee altitude
168.026 km
Perigee altitude
162.167 km
Semi-major axis
6,543.234 km
Eccentricity
0.00045
Inclination
52.9956°
RAAN
205.3149°
Arg. of periapsis
226.7507°
True anomaly
133.35391°
Mean anomaly
133.3166°
Eccentric anomaly
133.33526°
Mean motion
4.10067 °/min
Orbital period
87.79 mins
BSTAR
0.00075144
Loading maneuver chart data...
Computing Atmospheric mass density...

Documentation

Showing up to 5 results
|